When you browse on this site, cookies collect data to enhance your experience and personalize the content and advertising you see.
Visit our Privacy Policy to learn more. By continuing to use the site, you agree to this use of cookies and data.
  • In Hungary
  • List of Countries
  • For 7 days
  • Water Temperature
  • Weather Map
  • News
  • Weather Widgets
  • user-avatar
    Login

    Hourly Weather Weyburn

    Today, 12 November, Tuesday

    Time Temperature Precipitation Wind Pressure Humidity
    00:00 -17°C° 0 mm 4 mps 713 mmHg 88%
    01:00 -16°C° 0 mm 4 mps 711 mmHg 88%
    02:00 -16°C° 0 mm 4 mps 710 mmHg 89%
    03:00 -16°C° 0 mm 4 mps 709 mmHg 89%
    04:00 -15°C° 0 mm 3 mps 708 mmHg 89%
    05:00 -15°C° 0 mm 3 mps 708 mmHg 89%
    06:00 -14°C° 0 mm 3 mps 707 mmHg 88%
    07:00 -14°C° 0 mm 3 mps 707 mmHg 87%
    08:00 -12°C° 0 mm 2 mps 706 mmHg 86%
    09:00 -10°C° 0 mm 3 mps 706 mmHg 84%
    10:00 -8°C° 0 mm 3 mps 706 mmHg 82%
    11:00 -7°C° 0 mm 3 mps 706 mmHg 80%
    12:00 -6°C° 0 mm 3 mps 705 mmHg 80%
    13:00 -5°C° 0 mm 3 mps 705 mmHg 80%
    14:00 -5°C° 0 mm 3 mps 705 mmHg 81%
    15:00 -4°C° 0 mm 2 mps 704 mmHg 83%
    16:00 -4°C° 0 mm 2 mps 704 mmHg 86%
    17:00 -5°C° 0 mm 2 mps 704 mmHg 89%
    18:00 -6°C° 0 mm 3 mps 704 mmHg 89%
    19:00 -6°C° 0 mm 3 mps 704 mmHg 90%
    20:00 -6°C° 0 mm 3 mps 704 mmHg 90%
    21:00 -7°C° 0 mm 3 mps 705 mmHg 91%
    22:00 -8°C° 0 mm 3 mps 705 mmHg 92%
    23:00 -9°C° 0 mm 3 mps 705 mmHg 92%

    Tomorrow, 13 November, Wednesday

    Time Temperature Precipitation Wind Pressure Humidity
    00:00 -9°C° 0 mm 3 mps 706 mmHg 92%
    01:00 -10°C° 0 mm 3 mps 706 mmHg 92%
    02:00 -12°C° 0 mm 4 mps 707 mmHg 92%
    03:00 -14°C° 0 mm 4 mps 707 mmHg 92%
    04:00 -14°C° 0 mm 4 mps 708 mmHg 92%
    05:00 -15°C° 0 mm 4 mps 708 mmHg 92%
    06:00 -15°C° 0 mm 4 mps 709 mmHg 91%
    07:00 -15°C° 0 mm 3 mps 710 mmHg 91%
    08:00 -15°C° 0 mm 3 mps 710 mmHg 91%
    09:00 -14°C° 0 mm 3 mps 711 mmHg 88%
    10:00 -14°C° 0 mm 3 mps 711 mmHg 86%
    11:00 -13°C° 0 mm 3 mps 712 mmHg 84%
    12:00 -12°C° 0 mm 3 mps 712 mmHg 83%
    13:00 -12°C° 0 mm 3 mps 712 mmHg 83%
    14:00 -10°C° 0 mm 3 mps 712 mmHg 83%
    15:00 -10°C° 0 mm 2 mps 712 mmHg 84%
    16:00 -12°C° 0 mm 2 mps 712 mmHg 86%
    17:00 -11°C° 0 mm 1 mps 712 mmHg 87%
    18:00 -10°C° 0 mm 1 mps 712 mmHg 87%
    19:00 -12°C° 0 mm 2 mps 712 mmHg 86%
    20:00 -12°C° 0 mm 2 mps 712 mmHg 86%
    21:00 -9°C° 0 mm 2 mps 712 mmHg 88%
    22:00 -9°C° 0 mm 3 mps 712 mmHg 91%
    23:00 -8°C° 0 mm 3 mps 712 mmHg 93%

    Day after tomorrow, 14 November, Thursday

    Time Temperature Precipitation Wind Pressure Humidity
    00:00 -6°C° 0 mm 3 mps 712 mmHg 92%
    01:00 -5°C° 0 mm 3 mps 711 mmHg 92%
    02:00 -4°C° 0 mm 4 mps 711 mmHg 91%
    03:00 -4°C° 0 mm 4 mps 711 mmHg 91%
    04:00 -4°C° 0 mm 4 mps 711 mmHg 91%
    05:00 -4°C° 0 mm 4 mps 711 mmHg 91%
    06:00 -4°C° 0 mm 4 mps 711 mmHg 91%
    07:00 -4°C° 0 mm 4 mps 711 mmHg 91%
    08:00 -5°C° 0 mm 3 mps 711 mmHg 91%
    09:00 -4°C° 0 mm 3 mps 711 mmHg 90%
    10:00 -2°C° 0 mm 3 mps 712 mmHg 89%
    11:00 -1°C° 0 mm 3 mps 712 mmHg 88%
    12:00 -1°C° 0 mm 3 mps 712 mmHg 89%
    13:00 -2°C° 0 mm 2 mps 712 mmHg 90%
    14:00 -2°C° 0 mm 2 mps 712 mmHg 91%
    15:00 -1°C° 0 mm 1 mps 712 mmHg 92%
    16:00 -2°C° 0 mm 1 mps 712 mmHg 93%
    17:00 -3°C° 0 mm 1 mps 712 mmHg 94%
    18:00 -4°C° 0 mm 1 mps 712 mmHg 94%
    19:00 -6°C° 0 mm 2 mps 712 mmHg 95%
    20:00 -7°C° 0 mm 2 mps 712 mmHg 95%
    21:00 -7°C° 0 mm 3 mps 712 mmHg 96%
    22:00 -7°C° 0 mm 3 mps 712 mmHg 96%
    23:00 -8°C° 0 mm 4 mps 712 mmHg 96%

    15 November, Friday

    Time Temperature Precipitation Wind Pressure Humidity
    00:00 -7°C° 0 mm 4 mps 712 mmHg 96%
    01:00 -7°C° 0 mm 4 mps 712 mmHg 96%
    02:00 -6°C° 0 mm 5 mps 712 mmHg 95%
    03:00 -6°C° 0 mm 5 mps 712 mmHg 95%
    04:00 -6°C° 0 mm 6 mps 711 mmHg 95%
    05:00 -6°C° 0 mm 6 mps 711 mmHg 95%
    06:00 -6°C° 0 mm 6 mps 710 mmHg 95%
    07:00 -5°C° 0 mm 6 mps 710 mmHg 95%
    08:00 -5°C° 0 mm 6 mps 710 mmHg 95%
    09:00 -4°C° 0 mm 6 mps 710 mmHg 94%
    10:00 -3°C° 0 mm 7 mps 709 mmHg 92%
    11:00 -3°C° 0 mm 7 mps 709 mmHg 91%
    12:00 -2°C° 0 mm 6 mps 708 mmHg 92%
    13:00 -2°C° 0 mm 6 mps 707 mmHg 92%
    14:00 -2°C° 0 mm 6 mps 706 mmHg 93%
    15:00 -2°C° 0 mm 6 mps 706 mmHg 92%
    16:00 -2°C° 0 mm 5 mps 705 mmHg 92%
    17:00 -2°C° 0 mm 5 mps 704 mmHg 92%
    18:00 -2°C° 0 mm 5 mps 704 mmHg 91%
    19:00 -2°C° 0 mm 5 mps 703 mmHg 91%
    20:00 -2°C° 0 mm 4 mps 703 mmHg 90%
    21:00 -2°C° 0 mm 4 mps 703 mmHg 89%
    22:00 -1°C° 0 mm 4 mps 703 mmHg 88%
    23:00 -1°C° 0 mm 4 mps 703 mmHg 88%

    16 November, Saturday

    Time Temperature Precipitation Wind Pressure Humidity
    00:00 -1°C° 0 mm 5 mps 703 mmHg 89%
    01:00 -3°C° 0 mm 6 mps 703 mmHg 90%
    02:00 -3°C° 0 mm 7 mps 703 mmHg 92%
    03:00 -3°C° 0 mm 7 mps 704 mmHg 92%
    04:00 -3°C° 0 mm 7 mps 704 mmHg 92%
    05:00 -3°C° 0 mm 7 mps 705 mmHg 92%
    06:00 -3°C° 0.4 mm 7 mps 706 mmHg 93%
    07:00 -4°C° 0.4 mm 7 mps 706 mmHg 94%
    08:00 -4°C° 0.4 mm 7 mps 707 mmHg 96%
    09:00 -4°C° 0.3 mm 7 mps 708 mmHg 93%
    10:00 -3°C° 0.3 mm 7 mps 709 mmHg 91%
    11:00 -3°C° 0.3 mm 7 mps 709 mmHg 89%
    12:00 -3°C° 0 mm 7 mps 710 mmHg 88%
    13:00 -3°C° 0 mm 7 mps 710 mmHg 88%
    14:00 -3°C° 0 mm 7 mps 710 mmHg 88%
    15:00 -3°C° 0 mm 6 mps 711 mmHg 89%
    16:00 -4°C° 0 mm 5 mps 711 mmHg 90%
    17:00 -4°C° 0 mm 5 mps 711 mmHg 91%
    18:00 -4°C° 0 mm 4 mps 711 mmHg 92%
    19:00 -5°C° 0 mm 3 mps 711 mmHg 93%
    20:00 -5°C° 0 mm 2 mps 711 mmHg 93%
    21:00 -5°C° 0 mm 2 mps 710 mmHg 92%
    22:00 -5°C° 0 mm 2 mps 710 mmHg 91%
    23:00 -5°C° 0 mm 2 mps 710 mmHg 89%

    17 November, Sunday

    Time Temperature Precipitation Wind Pressure Humidity
    00:00 -4°C° 0 mm 2 mps 709 mmHg 88%
    01:00 -4°C° 0 mm 2 mps 709 mmHg 87%
    02:00 -5°C° 0 mm 3 mps 708 mmHg 86%
    03:00 -5°C° 0 mm 3 mps 707 mmHg 86%
    04:00 -5°C° 0 mm 4 mps 706 mmHg 86%
    05:00 -5°C° 0 mm 4 mps 705 mmHg 85%
    06:00 -5°C° 0 mm 4 mps 705 mmHg 85%
    07:00 -4°C° 0 mm 4 mps 704 mmHg 85%
    08:00 -3°C° 0 mm 4 mps 704 mmHg 85%
    09:00 -3°C° 0 mm 4 mps 703 mmHg 86%
    10:00 -1°C° 0 mm 3 mps 702 mmHg 87%
    11:00 0°C° 0 mm 3 mps 702 mmHg 89%
    12:00 +1°C° 0 mm 3 mps 701 mmHg 91%
    13:00 +1°C° 0 mm 3 mps 701 mmHg 94%
    14:00 +1°C° 0 mm 3 mps 701 mmHg 97%
    15:00 +1°C° 0 mm 3 mps 701 mmHg 95%
    16:00 0°C° 0 mm 4 mps 701 mmHg 92%
    17:00 -1°C° 0 mm 4 mps 701 mmHg 90%
    18:00 0°C° 0 mm 4 mps 701 mmHg 89%
    19:00 0°C° 0 mm 4 mps 701 mmHg 88%
    20:00 0°C° 0 mm 4 mps 701 mmHg 87%
    21:00 0°C° 0 mm 4 mps 701 mmHg 87%
    22:00 0°C° 0 mm 4 mps 701 mmHg 86%
    23:00 0°C° 0 mm 4 mps 701 mmHg 85%
    Show more